Location: ????????
(60.5616°N, 46.8254°E)
Time: 17:07:02
(UTC+00:00)

CSL-04 Debris - Pass Details

Date: 18 February 2020
Orbit: 827 x 848 km, 99.0° (Epoch: 30 March)

Event Time Altitude Azimuth Distance (km) Brightness Sun altitude
Rises 15:13:05 0° 165° (SSE) 3,385 7.2 -10.9°
Reaches altitude 10° 15:15:27 10° 168° (SSE) 2,457 6.5 -11.2°
Maximum altitude 15:20:54 74° 253° (WSW) 883 4.5 -11.9°
Drops below altitude 10° 15:26:26 10° 339° (NNW) 2,485 6.9 -12.6°
Sets 15:28:49 0° 342° (NNW) 3,427 7.6 -12.9°
